{"data":{"norad_id":47588,"intl_designator":"2021-009AS","name":"STARLINK-1993","alt_names":[],"object_type":"PAYLOAD","status":"ACTIVE","operator":null,"country":"US","launch_date":"2021-02-04","launch_site_code":"AFETR","launch_vehicle":null,"mission":null,"orbit_class":"UNKNOWN","rcs_meters":null,"size_class":null,"mass_kg":null,"dimensions":null,"purposes":["comms"],"wikipedia_slug":null,"has_3d_model":false,"image_url":null,"decayed_at":null,"tle_current":{"epoch":"2026-06-03T18:14:42.164736Z","epoch_age_seconds":9422258,"freshness":"OLD","line1":"1 47588U 21009AS  26154.76021024  .05053959  12160-4  95582-3 0  9996","line2":"2 47588  53.0218 264.1194 0012482 307.6354  52.3555 16.31006729295045","mean_motion":16.31006729,"eccentricity":0.0012482,"inclination_deg":53.0218,"raan_deg":264.1194,"arg_perigee_deg":307.6354,"mean_anomaly_deg":52.3555,"bstar":0.00095582,"rev_number":29504,"period_min":88.289028757281,"perigee_km":181.63756403109,"apogee_km":198.03385109825,"semimajor_km":6567.9727075647,"source":"CELESTRAK","updated_at":"2026-06-04T09:01:45.507692Z"}}}